When you browse on this site, cookies collect data to enhance your experience and personalize the content and advertising you see.
Visit our Privacy Policy to learn more. By continuing to use the site, you agree to this use of cookies and data.
  • în România
  • Lista ţărilor
  • Pe 7 zile
  • Temperatura apei
  • Hartă satelitară
  • Meteo pe hartă
  • Widget-uri
  • user-avatar
    Intrare

    Meteo pe oră la Borşa

    Astăzi, 27 Mai, Luni

    Timp Temperatura Precipitaţii Vânt Presiune Umiditate
    00:00 +10°C° 0 mm 1 m/s 682 mmHg 94%
    01:00 +10°C° 0 mm 1 m/s 682 mmHg 94%
    02:00 +10°C° 0 mm 1 m/s 682 mmHg 94%
    03:00 +10°C° 0 mm 1 m/s 682 mmHg 94%
    04:00 +10°C° 0 mm 1 m/s 682 mmHg 94%
    05:00 +10°C° 0 mm 1 m/s 682 mmHg 94%
    06:00 +12°C° 0 mm 1 m/s 682 mmHg 87%
    07:00 +15°C° 0 mm 1 m/s 683 mmHg 79%
    08:00 +18°C° 0 mm 1 m/s 683 mmHg 72%
    09:00 +20°C° 0 mm 1 m/s 683 mmHg 65%
    10:00 +20°C° 0 mm 2 m/s 684 mmHg 57%
    11:00 +23°C° 0 mm 2 m/s 684 mmHg 50%
    12:00 +23°C° 0 mm 2 m/s 684 mmHg 49%
    13:00 +24°C° 0 mm 3 m/s 683 mmHg 48%
    14:00 +24°C° 0 mm 3 m/s 683 mmHg 47%
    15:00 +24°C° 0 mm 3 m/s 683 mmHg 48%
    16:00 +22°C° 0 mm 3 m/s 682 mmHg 49%
    17:00 +23°C° 0 mm 2 m/s 682 mmHg 50%
    18:00 +20°C° 0 mm 2 m/s 681 mmHg 60%
    19:00 +19°C° 0 mm 1 m/s 681 mmHg 70%
    20:00 +16°C° 0 mm 1 m/s 680 mmHg 80%
    21:00 +15°C° 0.2 mm 1 m/s 680 mmHg 82%
    22:00 +15°C° 0.2 mm 1 m/s 680 mmHg 85%
    23:00 +14°C° 0.2 mm 1 m/s 680 mmHg 87%

    Mâine, 28 Mai, Marţi

    Timp Temperatura Precipitaţii Vânt Presiune Umiditate
    00:00 +14°C° 0.6 mm 1 m/s 680 mmHg 90%
    01:00 +14°C° 0.6 mm 1 m/s 680 mmHg 94%
    02:00 +14°C° 0.6 mm 1 m/s 680 mmHg 97%
    03:00 +14°C° 0.3 mm 1 m/s 679 mmHg 97%
    04:00 +14°C° 0.3 mm 1 m/s 679 mmHg 97%
    05:00 +14°C° 0.3 mm 1 m/s 679 mmHg 97%
    06:00 +16°C° 0 mm 1 m/s 679 mmHg 93%
    07:00 +18°C° 0 mm 1 m/s 679 mmHg 88%
    08:00 +19°C° 0 mm 1 m/s 679 mmHg 84%
    09:00 +20°C° 0.7 mm 2 m/s 679 mmHg 78%
    10:00 +21°C° 0.7 mm 3 m/s 679 mmHg 73%
    11:00 +22°C° 0.7 mm 3 m/s 679 mmHg 67%
    12:00 +22°C° 1.7 mm 3 m/s 679 mmHg 70%
    13:00 +21°C° 1.7 mm 3 m/s 678 mmHg 73%
    14:00 +21°C° 1.7 mm 3 m/s 678 mmHg 76%
    15:00 +21°C° 2.8 mm 3 m/s 678 mmHg 76%
    16:00 +21°C° 2.8 mm 2 m/s 678 mmHg 77%
    17:00 +20°C° 2.8 mm 2 m/s 678 mmHg 77%
    18:00 +20°C° 2.1 mm 1 m/s 677 mmHg 81%
    19:00 +18°C° 2.1 mm 1 m/s 677 mmHg 85%
    20:00 +15°C° 2.1 mm 1 m/s 677 mmHg 89%
    21:00 +14°C° 0.4 mm 1 m/s 677 mmHg 91%
    22:00 +13°C° 0.4 mm 1 m/s 677 mmHg 92%
    23:00 +13°C° 0.4 mm 1 m/s 677 mmHg 93%

    Poimâine, 29 Mai, Miercuri

    Timp Temperatura Precipitaţii Vânt Presiune Umiditate
    00:00 +13°C° 0 mm 1 m/s 677 mmHg 93%
    01:00 +13°C° 0 mm 1 m/s 677 mmHg 93%
    02:00 +13°C° 0 mm 1 m/s 677 mmHg 93%
    03:00 +13°C° 0.2 mm 1 m/s 677 mmHg 94%
    04:00 +12°C° 0.2 mm 1 m/s 677 mmHg 94%
    05:00 +11°C° 0.2 mm 0 m/s 678 mmHg 95%
    06:00 +13°C° 0 mm 0 m/s 678 mmHg 89%
    07:00 +15°C° 0 mm 0 m/s 679 mmHg 84%
    08:00 +17°C° 0 mm 0 m/s 679 mmHg 79%
    09:00 +18°C° 0.6 mm 0 m/s 680 mmHg 74%
    10:00 +21°C° 0.6 mm 1 m/s 680 mmHg 69%
    11:00 +22°C° 0.6 mm 1 m/s 680 mmHg 64%
    12:00 +22°C° 1.6 mm 1 m/s 680 mmHg 68%
    13:00 +22°C° 1.6 mm 1 m/s 680 mmHg 73%
    14:00 +21°C° 1.6 mm 1 m/s 680 mmHg 77%
    15:00 +21°C° 0.8 mm 1 m/s 680 mmHg 75%
    16:00 +21°C° 0.8 mm 1 m/s 680 mmHg 73%
    17:00 +21°C° 0.8 mm 1 m/s 680 mmHg 71%
    18:00 +19°C° 0.6 mm 1 m/s 680 mmHg 78%
    19:00 +16°C° 0.6 mm 0 m/s 680 mmHg 85%
    20:00 +14°C° 0.6 mm 0 m/s 680 mmHg 92%
    21:00 +13°C° 0.9 mm 0 m/s 680 mmHg 93%
    22:00 +14°C° 0.9 mm 1 m/s 681 mmHg 95%
    23:00 +13°C° 0.9 mm 1 m/s 681 mmHg 97%

    30 Mai, Joi

    Timp Temperatura Precipitaţii Vânt Presiune Umiditate
    00:00 +13°C° 0.5 mm 1 m/s 681 mmHg 97%
    01:00 +13°C° 0.5 mm 1 m/s 681 mmHg 97%
    02:00 +12°C° 0.5 mm 1 m/s 681 mmHg 98%
    03:00 +12°C° 0 mm 1 m/s 681 mmHg 98%
    04:00 +12°C° 0 mm 1 m/s 681 mmHg 98%
    05:00 +12°C° 0 mm 1 m/s 681 mmHg 98%
    06:00 +14°C° 0 mm 1 m/s 682 mmHg 94%
    07:00 +15°C° 0 mm 1 m/s 682 mmHg 91%
    08:00 +16°C° 0 mm 1 m/s 683 mmHg 88%
    09:00 +18°C° 0.5 mm 1 m/s 683 mmHg 84%
    10:00 +19°C° 0.5 mm 1 m/s 684 mmHg 81%
    11:00 +21°C° 0.5 mm 1 m/s 684 mmHg 77%
    12:00 +20°C° 1.4 mm 1 m/s 684 mmHg 80%
    13:00 +20°C° 1.4 mm 1 m/s 683 mmHg 84%
    14:00 +20°C° 1.4 mm 1 m/s 683 mmHg 87%
    15:00 +19°C° 1.7 mm 1 m/s 683 mmHg 89%
    16:00 +18°C° 1.7 mm 1 m/s 683 mmHg 91%
    17:00 +16°C° 1.7 mm 1 m/s 683 mmHg 93%
    18:00 +16°C° 0.9 mm 1 m/s 683 mmHg 94%
    19:00 +15°C° 0.9 mm 1 m/s 683 mmHg 95%
    20:00 +14°C° 0.9 mm 1 m/s 683 mmHg 96%
    21:00 +14°C° 1.1 mm 1 m/s 683 mmHg 96%
    22:00 +14°C° 1.1 mm 1 m/s 683 mmHg 97%
    23:00 +14°C° 1.1 mm 1 m/s 683 mmHg 97%

    31 Mai, Vineri

    Timp Temperatura Precipitaţii Vânt Presiune Umiditate
    00:00 +14°C° 1.6 mm 1 m/s 683 mmHg 97%
    01:00 +14°C° 1.6 mm 1 m/s 683 mmHg 98%
    02:00 +14°C° 1.6 mm 1 m/s 682 mmHg 98%
    03:00 +13°C° 0.7 mm 1 m/s 682 mmHg 98%
    04:00 +13°C° 0.7 mm 2 m/s 682 mmHg 97%
    05:00 +13°C° 0.7 mm 2 m/s 681 mmHg 97%
    06:00 +14°C° 0.5 mm 2 m/s 681 mmHg 97%
    07:00 +14°C° 0.5 mm 2 m/s 681 mmHg 96%
    08:00 +15°C° 0.5 mm 2 m/s 681 mmHg 95%
    09:00 +15°C° 0.2 mm 2 m/s 681 mmHg 91%
    10:00 +16°C° 0.2 mm 2 m/s 681 mmHg 88%
    11:00 +17°C° 0.2 mm 2 m/s 681 mmHg 84%
    12:00 +17°C° 0.5 mm 2 m/s 681 mmHg 83%
    13:00 +18°C° 0.5 mm 2 m/s 681 mmHg 83%
    14:00 +20°C° 0.5 mm 1 m/s 681 mmHg 82%
    15:00 +19°C° 1.7 mm 1 m/s 681 mmHg 86%
    16:00 +18°C° 1.7 mm 1 m/s 681 mmHg 90%
    17:00 +18°C° 1.7 mm 1 m/s 680 mmHg 94%
    18:00 +16°C° 1.9 mm 1 m/s 680 mmHg 95%
    19:00 +15°C° 1.9 mm 1 m/s 680 mmHg 95%
    20:00 +15°C° 1.9 mm 1 m/s 680 mmHg 96%
    21:00 +14°C° 1.3 mm 1 m/s 680 mmHg 96%
    22:00 +14°C° 1.3 mm 1 m/s 680 mmHg 97%
    23:00 +14°C° 1.3 mm 1 m/s 680 mmHg 97%

    1 Iunie, Sâmbătă

    Timp Temperatura Precipitaţii Vânt Presiune Umiditate
    00:00 +13°C° 0.5 mm 1 m/s 680 mmHg 97%
    01:00 +13°C° 0.5 mm 1 m/s 680 mmHg 96%
    02:00 +13°C° 0.5 mm 1 m/s 680 mmHg 96%
    03:00 +13°C° 0.1 mm 1 m/s 680 mmHg 96%
    04:00 +13°C° 0.1 mm 1 m/s 680 mmHg 95%
    05:00 +13°C° 0.1 mm 1 m/s 680 mmHg 95%
    06:00 +14°C° 0.5 mm 1 m/s 680 mmHg 93%
    07:00 +16°C° 0.5 mm 1 m/s 680 mmHg 90%
    08:00 +18°C° 0.5 mm 1 m/s 681 mmHg 88%
    09:00 +19°C° 1.8 mm 1 m/s 681 mmHg 86%
    10:00 +20°C° 1.8 mm 1 m/s 681 mmHg 83%
    11:00 +20°C° 1.8 mm 1 m/s 681 mmHg 81%
    12:00 +21°C° 1.8 mm 1 m/s 681 mmHg 81%
    13:00 +21°C° 1.8 mm 1 m/s 681 mmHg 81%
    14:00 +21°C° 1.8 mm 1 m/s 681 mmHg 81%
    15:00 +19°C° 3 mm 1 m/s 680 mmHg 85%
    16:00 +17°C° 3 mm 2 m/s 680 mmHg 90%
    17:00 +16°C° 3 mm 2 m/s 680 mmHg 95%
    18:00 +15°C° 0.6 mm 2 m/s 680 mmHg 95%
    19:00 +15°C° 0.6 mm 2 m/s 680 mmHg 96%
    20:00 +14°C° 0.6 mm 2 m/s 680 mmHg 97%
    21:00 +14°C° 0 mm 2 m/s 680 mmHg 97%
    22:00 +13°C° 0 mm 2 m/s 680 mmHg 97%
    23:00 +13°C° 0 mm 2 m/s 680 mmHg 97%
    Arată mai mult